Regional Weather Roundup
Issued by NWS

Home | Current Version | Previous Version | Graphics & Text | Print | Product List | Glossary Off
Versions: 1 2 3 4 5 6 7 8 9 10 11 12 13 14 15 16 17 18 19 20 21 22 23 24 25 26 27 28 29 30 31 32 33 34 35 36 37 38 39 40 41 42 43 44 45 46 47 48 49 50

000
ASUS43 KMKX 020421
RWRWI

WISCONSIN REGIONAL WEATHER ROUNDUP
NATIONAL WEATHER SERVICE MILWAUKEE/SULLIVAN WI
1100 PM CDT TUE SEP 01 2015

NOTE: "FAIR" INDICATES FEW OR NO CLOUDS BELOW 12,000 FEET WITH NO
SIGNIFICANT WEATHER AND/OR OBSTRUCTIONS TO VISIBILITY.

WIZ001-002-006>008-014>016-023>028-020500-
NORTHWEST WISCONSIN

CITY           SKY/WX    TMP DP  RH WIND       PRES   REMARKS
SUPERIOR ARPT  PTCLDY    68  67  99 NE6       29.92S FOG
ASHLAND        CLEAR     66  66 100 CALM      29.95S FOG
HAYWARD        PTCLDY    69  67  93 CALM      29.96S FOG
SIREN          CLOUDY    74  72  92 CALM      29.93F
CUMBERLAND     MOCLDY    72  70  94 E3        29.95F FOG
RICE LAKE      MOCLDY    73  71  94 CALM      29.96F FOG
CHETEK         MOCLDY   N/A N/A N/A CALM      29.95S
LADYSMITH      MOCLDY    73  71  93 E3        29.98S
EAU CLAIRE     MOCLDY    76  73  91 CALM      29.94S
MENOMONIE      MOCLDY    73  72  95 E3        29.94S FOG
NEW RICHMOND   CLOUDY    75  74  96 CALM      29.94S
OSCEOLA        CLOUDY    76  76 100 SE3       29.95S
$$

WIZ003>005-009-010-017-018-020500-
NORTH CENTRAL WISCONSIN

CITY           SKY/WX    TMP DP  RH WIND       PRES   REMARKS
MANITOWISH WTR FOG       65  65 100 CALM      30.00R VSB 1/2
ARBOR VITAE    MOCLDY    69  68  96 CALM      30.00S FOG
WOODRUFF       MOCLDY    69  68  96 CALM      30.00S FOG
RHINELANDER    FOG       68  66  93 CALM      30.01S VSB 1
EAGLE RIVER    MOCLDY    67  67 100 CALM      30.00S FOG
LAND O LAKES     N/A     64  64  99 CALM      30.01S FOG
PHILLIPS       CLOUDY    68  68 100 CALM      29.98S FOG
TOMAHAWK       MOCLDY    69  68  96 CALM      30.00S FOG
MEDFORD        MOCLDY    69  69 100 CALM      29.99S FOG
MERRILL        FOG       70  70 100 CALM      29.99S VSB 1/2
$$

WIZ029-030-035-036-043>047-020500-
CENTRAL WISCONSIN

CITY           SKY/WX    TMP DP  RH WIND       PRES   REMARKS
WAUSAU         MOCLDY    74  71  91 CALM      29.97R
MOSINEE        MOCLDY    70  70 100 CALM      30.00R FOG
MARSHFIELD     MOCLDY    73  69  87 S3        29.98S
STEVENS POINT  MOCLDY    70  68  95 CALM      29.99R
WAUPACA        PTCLDY    73  72  98 CALM      29.98R
WAUTOMA        PTCLDY    72  72 100 CALM      29.99R
WISC RAPIDS    PTCLDY    73  70  90 SW3       29.99R
CAMP DOUGLAS   MOCLDY    72  72 100 E3        29.97R
$$

WIZ011>013-019>022-031-037>040-048>050-020500-
NORTHEAST WISCONSIN

CITY           SKY/WX    TMP DP  RH WIND       PRES   REMARKS
ANTIGO         MOCLDY    70  69  99 CALM      30.01R FOG
SHAWANO        CLOUDY    76  71  85 CALM      29.97R
OCONTO         MOCLDY    70  70 100 CALM      29.95R
STURGEON BAY   MOCLDY    73  68  83 S6        29.99S
GREEN BAY      MOCLDY    74  70  87 S3        29.97R
MANITOWOC      PTCLDY    63  61  93 MISG      29.98S
APPLETON       MOCLDY    75  70  83 S7        29.96S
CLINTONVILLE   PTCLDY    72  70  94 CALM      29.98R
OSHKOSH        MOCLDY    75  71  87 S6        29.98R
$$

WIZ032>034-041-042-053>061-020500-
SOUTHWEST WISCONSIN

CITY           SKY/WX    TMP DP  RH WIND       PRES   REMARKS
LA CROSSE      MOCLDY    78  74  87 SE5       29.95R HX  81
SPARTA         PTCLDY    72  69  92 CALM      29.97S
VIROQUA          N/A     74  74 100 SW6       30.00S
BOSCOBEL       MOCLDY    74  72  93 SW3       29.98R
PRAIRIE DU CHI PTCLDY    77  71  82 CALM      29.99R
PLATTEVILLE    MOCLDY    73  71  93 S6        30.02R
$$

WIZ056-057-062-063-064-067-068-020500-
SOUTH CENTRAL WISCONSIN

CITY           SKY/WX    TMP DP  RH WIND       PRES   REMARKS
REEDSBURG      PTCLDY    75  73  92 S3        29.98R
BARABOO/DELLS  PTCLDY    75  71  87 SW5       29.99R
LONE ROCK      PTCLDY    73  70  90 NE3       29.99R FOG
MINERAL POINT  PTCLDY    75  72  88 SW6       30.03R
MADISON        PTCLDY    76  71  85 CALM      29.99S
MIDDLETON      PTCLDY    77  73  86 SW6       30.01R
WATERTOWN      PTCLDY    74  74 100 S3        30.01R
MONROE         PTCLDY    75  70  83 SW10      30.02R
JANESVILLE     PTCLDY    75  72  88 SW6       30.01S
$$

WIZ051-052-058>065-066-070>072-020500-
SOUTHEAST WISCONSIN

CITY           SKY/WX    TMP DP  RH WIND       PRES   REMARKS
MILWAUKEE      MOCLDY    79  70  74 SW8       30.00S HX  82
WAUKESHA       PTCLDY    73  70  88 CALM      30.03R
MILWAUKEE/TIMM PTCLDY    77  68  73 S5        30.01S
RACINE         CLEAR     78  70  76 SW7       30.02S HX  80
BURLINGTON     PTCLDY    69  68  97 CALM      30.02S
KENOSHA        CLEAR     77  72  84 SW7       30.02R
FOND DU LAC    MOCLDY    74  71  91 S6        29.99R
SHEBOYGAN      PTCLDY    70  69  97 CALM      29.99R FOG
WEST BEND      PTCLDY    72  68  88 CALM      30.00S
JUNEAU         MOCLDY    74  71  88 S5        30.01S
$$

LSZ147-162-020500-
LAKE SUPERIOR

STATION/POSITION TIME  TEMP    WIND        PRES    WAVE
                       AIR SEA DIR/SP/G            HT/PER
                 (UTC) (F)     (DEG/KT/KT) (MB)    (FT/S)
W MID LAKE BUOY  0350   59 56  120/  4/  6 1013.9R   0
DEVILS ISLAND    0400   71     170/  2/  2 1013.5S
PORT WING        0300   68      CALM  /  1 1013.5R
SAXON HARBOR     0340   73      CALM  /  4 1013.2S
$$

LMZ867-665-643>646-020500-
LAKE MICHIGAN

STATION/POSITION TIME  TEMP    WIND        PRES    WAVE
                       AIR SEA DIR/SP/G            HT/PER
                 (UTC) (F)     (DEG/KT/KT) (MB)    (FT/S)
CHAMBERS ISLAND  0300   74     170/  4/  8 1013.9S
S GREEN BAY BUOY 0230   72 67  180/  6/  6 1015.6R
N MID LAKE BUOY  0350   67 65  200/ 12/ 14 1014.2S   2/ 4
NORTHPORT PIER   0300   70     160/  3/  7 1014.2R
SISTER BAY       0219   69     150/ 10/ 13   N/A
ALGOMA LAKESHORE 0314             CALM       N/A
KEWAUNEE LAKESHO 0300   52     150/  2/  3 1013.7S
SHEBOYGAN LAKESH 0400   66     190/  7/  7 1015.5R
PORT WASHINGTON  0300   61      CALM  /  1 1015.9R
ATWATER BUOY     0400   59 49  170/  8/  8 1017.2R
MILWAUKEE LAKESH 0310   63     170/  1/  2   N/A
S MID LAKE BUOY  0350   74 70  190/ 12/ 14 1015.9R   1/ 3
KENOSHA   LAKESH 0400   77     200/  7/  8 1015.9S
$$

TC  - TEMPERATURE IN CELSIUS
VSB - VISIBILITY IN STATUTE MILES
WCI - WIND CHILL INDEX
HX  - HEAT INDEX




USA.gov is the U.S. government's official web portal to all federal, state and local government web resources and services.